BIMS4 Weather Reports


time (UTC)temp
C
wind
direction
speed
KPH
gust
KPH
rain 1hr
cm
rain 24hr
cm
rain mn
cm
humidity
%
barometer
mb
20260507013009 7 30 0.0 0.0 0.00 0.00 0.00 88 1014.6
20260507012503 7 30 0.0 0.0 0.00 0.00 0.00 87 1014.6
20260507012004 7 30 0.0 0.0 0.00 0.00 0.00 87 1014.5
20260507011503 7 30 0.0 0.0 0.00 0.00 0.00 87 1014.6
20260507011004 7 30 0.0 0.0 0.00 0.00 0.00 87 1014.6
20260507010502 7 30 0.0 0.0 0.00 0.00 0.00 87 1014.5
20260507010004 7 30 0.0 0.0 0.00 0.00 0.00 87 1014.5
20260507005626 7 30 0.0 0.0 0.00 0.00 0.00 86 1014.5
20260507005604 7 30 0.0 0.0 0.00 0.00 0.00 87 1014.5
20260507004504 7 30 0.0 0.0 0.00 0.00 0.00 86 1014.6
20260507004004 7 30 0.0 0.0 0.00 0.00 0.00 86 1014.5
20260507003504 7 30 0.0 0.0 0.00 0.00 0.00 86 1014.5
20260507003003 7 30 0.0 0.0 0.00 0.00 0.00 86 1014.5
20260507002503 8 30 0.0 0.0 0.00 0.00 0.00 86 1014.5
20260507002004 8 30 0.0 0.0 0.00 0.00 0.00 85 1014.5
20260507001503 8 30 0.0 0.0 0.00 0.00 0.00 85 1014.4
20260507001004 8 30 0.0 0.0 0.00 0.00 0.00 85 1014.4
20260507000504 8 30 0.0 0.0 0.00 0.00 0.00 85 1014.4
20260507000005 8 30 0.0 0.0 0.00 0.00 0.00 85 1014.4
20260506235503 8 30 0.0 0.0 0.00 0.00 0.00 85 1014.6
20260506235317 8 30 0.0 0.0 0.00 0.00 0.00 84 1014.5
20260506234505 8 30 0.0 0.0 0.00 0.00 0.00 84 1014.6
20260506234005 8 30 0.0 0.0 0.00 0.00 0.00 84 1014.5
20260506233503 8 30 0.0 0.0 0.00 0.00 0.00 84 1014.4
20260506233004 8 30 0.0 0.0 0.00 0.00 0.00 83 1014.5
20260506232504 8 30 0.0 0.0 0.00 0.00 0.00 83 1014.6
20260506232005 8 30 0.0 0.0 0.00 0.00 0.00 83 1014.5
20260506231505 8 30 0.0 0.0 0.00 0.00 0.00 83 1014.4
20260506231434 9 30 0.0 0.0 0.00 0.00 0.00 82 1014.4
20260506231038 8 30 0.0 0.0 0.00 0.00 0.00 82 1014.4
20260506230006 9 30 0.0 0.0 0.00 0.00 0.00 82 1014.4
20260506225533 9 30 0.0 0.0 0.00 0.00 0.00 81 1014.3
20260506225525 9 30 0.0 0.0 0.00 0.00 0.00 82 1014.3
20260506224746 9 68 0.0 0.0 0.00 0.00 0.00 82 1014.3
20260506224006 9 68 0.0 0.0 0.00 0.00 0.00 82 1014.3
20260506223529 9 68 0.0 0.0 0.00 0.00 0.00 81 1014.2
20260506223308 10 318 0.0 0.0 0.00 0.00 0.00 82 1014.1
20260506222503 10 315 0.0 0.0 0.00 0.00 0.00 81 1014.0
20260506222008 10 8 0.0 0.0 0.00 0.00 0.00 81 1014.1
20260506221504 10 292 0.0 0.0 0.00 0.00 0.00 81 1014.0
20260506221004 10 292 0.0 0.0 0.00 0.00 0.00 81 1014.0
20260506220504 10 297 0.0 0.0 0.00 0.00 0.00 80 1013.8
20260506220054 10 305 0.0 0.0 0.00 0.00 0.00 80 1013.9
20260506215502 10 294 0.0 0.0 0.00 0.00 0.00 80 1013.6
20260506215006 10 274 0.0 0.0 0.00 0.00 0.00 79 1013.7
20260506214504 10 274 0.0 0.0 0.00 0.00 0.00 79 1013.7
20260506214004 10 274 0.0 0.0 0.00 0.00 0.00 78 1013.7
20260506213459 10 263 0.0 0.0 0.00 0.00 0.00 78 1013.5
20260506212959 10 295 0.0 0.0 0.00 0.00 0.00 77 1013.6
20260506212502 10 295 0.0 0.0 0.00 0.00 0.00 77 1013.6
20260506211959 10 295 0.0 0.0 0.00 0.00 0.00 77 1013.5
20260506211517 10 295 0.0 0.0 0.00 0.00 0.00 76 1013.7
20260506210959 10 295 0.0 0.0 0.00 0.00 0.00 76 1013.4
20260506210458 11 295 0.0 0.0 0.00 0.00 0.00 76 1013.4
20260506205959 11 295 0.0 0.0 0.00 0.00 0.00 76 1013.4
20260506205457 11 295 0.0 0.0 0.00 0.00 0.00 76 1013.4
20260506204955 11 295 0.0 0.0 0.00 0.00 0.00 75 1013.2
20260506204545 11 295 0.0 0.0 0.00 0.00 0.00 75 1013.1
20260506204530 11 295 0.0 0.0 0.00 0.00 0.00 75 1013.2
20260506203443 11 285 0.0 0.0 0.00 0.00 0.00 75 1013.1
20260506203231 11 305 0.0 0.0 0.00 0.00 0.00 75 1013.1
20260506202440 11 295 0.0 0.0 0.00 0.00 0.00 74 1013.1
20260506201935 11 308 0.0 0.0 0.00 0.00 0.00 74 1013.1
20260506201436 11 268 0.0 0.0 0.00 0.00 0.00 74 1013.1
20260506200935 11 302 0.0 0.0 0.00 0.00 0.00 73 1013.1
20260506200434 11 277 0.0 1.6 0.00 0.00 0.00 73 1013.1
20260506195935 11 308 0.0 3.2 0.00 0.00 0.00 72 1013.1
20260506195436 11 289 0.0 3.2 0.00 0.00 0.00 71 1013.0
20260506194935 12 289 0.0 1.6 0.00 0.00 0.00 71 1012.9
20260506194433 12 289 0.0 3.2 0.00 0.00 0.00 71 1012.9
20260506193932 12 289 0.0 3.2 0.00 0.00 0.00 71 1012.8
20260506193433 12 307 0.0 3.2 0.00 0.00 0.00 70 1012.8
20260506192933 12 319 0.0 3.2 0.00 0.00 0.00 70 1012.6
20260506192730 12 317 0.0 4.8 0.00 0.00 0.00 70 1012.6
20260506191931 12 285 0.0 4.8 0.00 0.00 0.00 70 1012.6
20260506191431 12 346 0.0 4.8 0.00 0.00 0.00 70 1012.4
20260506190930 12 39 0.0 4.8 0.00 0.00 0.00 71 1012.4
20260506190431 12 295 0.0 4.8 0.00 0.00 0.00 71 1012.3
20260506185928 12 4 0.0 4.8 0.00 0.00 0.00 71 1012.4
20260506185427 12 303 0.0 4.8 0.00 0.00 0.00 71 1012.2
20260506184933 12 97 1.6 4.8 0.00 0.00 0.00 72 1012.2
20260506184427 12 322 1.6 6.4 0.00 0.00 0.00 72 1012.1
20260506184247 12 303 1.6 6.4 0.00 0.00 0.00 72 1012.0
20260506183733 12 70 1.6 6.4 0.00 0.00 0.00 72 1012.0
20260506182923 12 287 1.6 6.4 0.00 0.00 0.00 72 1012.0
20260506182733 12 357 1.6 6.4 0.00 0.00 0.00 72 1012.0
20260506181924 12 276 1.6 4.8 0.00 0.00 0.00 72 1011.9
20260506181422 12 295 3.2 6.4 0.00 0.00 0.00 72 1011.8
20260506180921 12 304 1.6 6.4 0.00 0.00 0.00 71 1011.7
20260506180420 12 312 1.6 11.3 0.00 0.00 0.00 71 1011.7
20260506175920 13 316 1.6 11.3 0.00 0.00 0.00 71 1011.7
20260506175544 13 290 1.6 6.4 0.00 0.00 0.00 67 1011.6
20260506175525 13 299 1.6 6.4 0.00 0.00 0.00 69 1011.6
20260506174420 13 300 0.0 4.8 0.00 0.00 0.00 64 1011.5
20260506173923 13 308 0.0 4.8 0.00 0.00 0.00 64 1011.4
20260506173419 13 58 0.0 4.8 0.00 0.00 0.00 63 1011.3
20260506172917 13 67 0.0 4.8 0.00 0.00 0.00 62 1011.3
20260506172418 13 28 0.0 4.8 0.00 0.00 0.00 62 1011.3
20260506171916 13 309 0.0 3.2 0.00 0.00 0.00 61 1011.2
20260506171416 13 309 1.6 4.8 0.00 0.00 0.00 61 1011.2
20260506170916 13 30 1.6 6.4 0.00 0.00 0.00 61 1011.2
20260506170417 13 57 1.6 6.4 0.00 0.00 0.00 61 1011.2
20260506165917 13 72 1.6 8.0 0.00 0.00 0.00 61 1011.2
20260506165425 13 57 1.6 8.0 0.00 0.00 0.00 61 1011.1
20260506164928 13 311 1.6 8.0 0.00 0.00 0.00 61 1011.1
20260506164416 13 56 1.6 6.4 0.00 0.00 0.00 62 1011.2
20260506163916 13 297 1.6 6.4 0.00 0.00 0.00 62 1011.2
20260506163416 13 285 1.6 6.4 0.00 0.00 0.00 61 1011.2
20260506162925 13 280 1.6 6.4 0.00 0.00 0.00 61 1011.2
20260506162414 13 80 3.2 11.3 0.00 0.00 0.00 62 1011.1
20260506161915 13 60 3.2 11.3 0.00 0.00 0.00 61 1011.1
20260506161711 13 297 3.2 8.0 0.00 0.00 0.00 60 1011.1
20260506160914 13 35 1.6 6.4 0.00 0.00 0.00 59 1011.0
20260506160414 13 62 1.6 12.9 0.00 0.00 0.00 59 1011.0
20260506155915 14 55 1.6 12.9 0.00 0.00 0.00 58 1011.0
20260506155723 14 56 0.0 4.8 0.00 0.00 0.00 58 1011.1
20260506154915 14 39 1.6 4.8 0.00 0.00 0.00 57 1011.0
20260506154415 14 66 1.6 9.7 0.00 0.00 0.00 57 1010.9
20260506153912 14 312 0.0 9.7 0.00 0.00 0.00 58 1011.0
20260506153413 14 105 1.6 9.7 0.00 0.00 0.00 57 1011.0
20260506152913 14 282 1.6 9.7 0.00 0.00 0.00 56 1010.9
20260506152412 14 305 1.6 8.0 0.00 0.00 0.00 55 1010.9
20260506152020 14 13 1.6 6.4 0.00 0.00 0.00 55 1010.9
20260506151946 14 332 0.0 6.4 0.00 0.00 0.00 56 1010.9
20260506150913 14 68 1.6 6.4 0.00 0.00 0.00 55 1010.9
20260506150410 14 335 0.0 4.8 0.00 0.00 0.00 54 1010.9
20260506145910 14 96 0.0 3.2 0.00 0.00 0.00 56 1010.9
20260506145703 14 89 1.6 6.4 0.00 0.00 0.00 57 1010.8
20260506144910 13 76 3.2 6.4 0.00 0.00 0.00 56 1010.9
20260506144719 13 95 3.2 14.5 0.00 0.00 0.00 55 1010.8
20260506143910 14 59 3.2 14.5 0.00 0.00 0.00 55 1010.8
20260506143410 14 87 3.2 16.1 0.00 0.00 0.00 55 1010.8
20260506143211 14 110 3.2 16.1 0.00 0.00 0.00 54 1010.9
20260506142413 14 62 3.2 14.5 0.00 0.00 0.00 54 1010.8
20260506141925 14 45 4.8 12.9 0.00 0.00 0.00 54 1010.9
20260506141406 14 87 4.8 12.9 0.00 0.00 0.00 54 1010.8
20260506141212 14 90 3.2 12.9 0.00 0.00 0.00 53 1010.9
20260506140405 14 89 4.8 12.9 0.00 0.00 0.00 53 1010.8
20260506135906 14 64 3.2 9.7 0.00 0.00 0.00 52 1010.8
20260506135404 14 20 3.2 12.9 0.00 0.00 0.00 52 1010.7
20260506134906 14 86 4.8 12.9 0.00 0.00 0.00 52 1010.8
20260506134403 14 290 4.8 14.5 0.00 0.00 0.00 53 1010.7
20260506133907 14 76 4.8 14.5 0.00 0.00 0.00 50 1010.6
20260506133402 14 39 4.8 12.9 0.00 0.00 0.00 52 1010.6
20260506132906 14 48 4.8 12.9 0.00 0.00 0.00 51 1010.7
20260506132402 14 76 3.2 12.9 0.00 0.00 0.00 51 1010.7
20260506131859 14 66 3.2 11.3 0.00 0.00 0.00 51 1010.8
20260506131655 14 91 3.2 11.3 0.00 0.00 0.00 52 1010.7
20260506130859 14 47 3.2 8.0 0.00 0.00 0.00 53 1010.5
20260506130357 14 126 3.2 20.9 0.00 0.00 0.00 51 1010.6
20260506125855 14 14 4.8 20.9 0.00 0.00 0.00 51 1010.6
20260506125357 14 327 3.2 12.9 0.00 0.00 0.00 51 1010.6
20260506124857 14 66 3.2 12.9 0.00 0.00 0.00 53 1010.5
20260506124355 14 81 3.2 12.9 0.00 0.00 0.00 53 1010.6
20260506123908 14 301 3.2 12.9 0.00 0.00 0.00 52 1010.6
20260506123355 14 338 3.2 9.7 0.00 0.00 0.00 52 1010.6
20260506122902 14 73 1.6 6.4 0.00 0.00 0.00 53 1010.7
20260506122356 14 292 1.6 6.4 0.00 0.00 0.00 53 1010.6
20260506121855 14 72 3.2 9.7 0.00 0.00 0.00 54 1010.6
20260506121357 14 68 3.2 9.7 0.00 0.00 0.00 53 1010.7
20260506121148 14 301 3.2 12.9 0.00 0.00 0.00 55 1010.6
20260506120356 14 322 3.2 12.9 0.00 0.00 0.00 54 1010.5
20260506115855 14 41 3.2 12.9 0.00 0.00 0.00 54 1010.6
20260506115354 14 81 3.2 12.9 0.00 0.00 0.00 53 1010.5
20260506115206 14 70 3.2 11.3 0.00 0.00 0.00 57 1010.5
20260506114351 14 68 3.2 12.9 0.00 0.00 0.00 55 1010.6
20260506113847 14 47 3.2 12.9 0.00 0.00 0.00 55 1010.6
20260506113338 14 84 3.2 11.3 0.00 0.00 0.00 56 1010.5
20260506112842 14 70 3.2 11.3 0.00 0.00 0.00 57 1010.4
20260506112334 13 73 4.8 11.3 0.00 0.00 0.00 56 1010.4
20260506111833 13 95 4.8 11.3 0.00 0.00 0.00 54 1010.4
20260506111335 14 110 3.2 9.7 0.00 0.00 0.00 54 1010.4
20260506111131 13 293 1.6 8.0 0.00 0.00 0.00 57 1010.4
20260506110340 13 71 3.2 11.3 0.00 0.00 0.00 58 1010.3
20260506105834 13 231 3.2 11.3 0.00 0.00 0.00 59 1010.3
20260506105334 13 97 1.6 11.3 0.00 0.00 0.00 62 1010.3
20260506105139 13 58 3.2 11.3 0.00 0.00 0.00 61 1010.4
20260506104334 13 85 1.6 6.4 0.00 0.00 0.00 63 1010.3
20260506103834 13 6 1.6 6.4 0.00 0.00 0.00 64 1010.3
20260506103334 13 297 1.6 6.4 0.00 0.00 0.00 63 1010.3
20260506102834 13 80 1.6 6.4 0.00 0.00 0.00 60 1010.3
20260506102335 13 317 1.6 6.4 0.00 0.00 0.00 62 1010.3
20260506101950 13 330 1.6 16.1 0.00 0.00 0.00 61 1010.3
20260506101911 13 303 1.6 6.4 0.00 0.00 0.00 63 1010.2
20260506100833 13 62 1.6 16.1 0.00 0.00 0.00 64 1010.2
20260506100329 13 288 0.0 4.8 0.00 0.00 0.00 69 1010.1
20260506095825 13 347 0.0 4.8 0.00 0.00 0.00 72 1010.1
20260506095320 12 291 1.6 9.7 0.00 0.00 0.00 72 1010.1
20260506094816 12 303 1.6 9.7 0.00 0.00 0.00 72 1010.1
20260506094614 12 310 1.6 6.4 0.00 0.00 0.00 74 1010.1
20260506093818 12 157 1.6 8.0 0.00 0.00 0.00 75 1010.0
20260506093316 12 304 1.6 9.7 0.00 0.00 0.00 76 1010.1
20260506092815 12 323 1.6 9.7 0.00 0.00 0.00 76 1010.1
20260506092316 12 294 1.6 9.7 0.00 0.00 0.00 77 1010.0
20260506091813 12 353 1.6 9.7 0.00 0.00 0.00 77 1010.1
20260506091606 12 306 1.6 4.8 0.00 0.00 0.00 78 1010.0
20260506090813 12 290 1.6 4.8 0.00 0.00 0.00 78 1009.9
20260506090314 12 108 0.0 4.8 0.00 0.00 0.00 78 1010.0
20260506085813 12 277 1.6 4.8 0.00 0.00 0.00 78 1009.9
20260506085315 12 120 1.6 6.4 0.00 0.00 0.00 78 1009.9
20260506085116 12 293 1.6 6.4 0.00 0.00 0.00 78 1010.0
20260506084313 12 304 1.6 4.8 0.00 0.00 0.00 77 1009.9
20260506084139 12 299 1.6 6.4 0.00 0.00 0.00 77 1009.9
20260506083307 12 297 1.6 6.4 0.00 0.00 0.00 76 1009.9
20260506082808 12 301 1.6 8.0 0.00 0.00 0.00 77 1010.0
20260506082307 12 299 1.6 9.7 0.00 0.00 0.00 77 1009.9
20260506081805 12 292 1.6 9.7 0.00 0.00 0.00 76 1009.8
20260506081305 12 342 0.0 4.8 0.00 0.00 0.00 76 1009.8
20260506081031 12 287 1.6 12.9 0.00 0.00 0.00 75 1009.9
20260506080314 12 74 1.6 12.9 0.00 0.00 0.00 74 1009.8
20260506073204 12 296 1.6 9.7 0.00 0.00 0.00 72 1009.6
20260506073200 12 91 1.6 9.7 0.00 0.00 0.00 72 1009.6
20260506071804 11 310 1.6 6.4 0.00 0.00 0.00 73 1009.6
20260506071310 11 296 0.0 4.8 0.00 0.00 0.00 74 1009.6
20260506070808 11 306 0.0 4.8 0.00 0.00 0.00 76 1009.6
20260506070306 11 288 0.0 3.2 0.00 0.00 0.00 77 1009.5
20260506062305 11 299 0.0 4.8 0.00 0.00 0.00 84 1009.4
20260506061802 11 302 0.0 4.8 0.00 0.00 0.00 84 1009.3
20260506061307 11 263 0.0 6.4 0.00 0.00 0.00 84 1009.3
20260506060802 11 305 0.0 6.4 0.00 0.00 0.00 84 1009.3
20260506060301 11 301 0.0 4.8 0.00 0.00 0.00 85 1009.2
20260506051242 11 301 0.0 4.8 0.00 0.00 0.00 86 1009.1
20260506050750 11 285 0.0 1.6 0.00 0.00 0.00 86 1009.1
20260506050240 11 278 0.0 3.2 0.00 0.00 0.00 86 1009.0
20260506044739 10 297 0.0 4.8 0.00 0.00 0.00 85 1009.2
20260506044236 10 293 0.0 6.4 0.00 0.00 0.00 84 1009.1
20260506043739 10 289 0.0 6.4 0.00 0.00 0.00 85 1009.3
20260506043236 10 308 1.6 6.4 0.00 0.00 0.00 85 1009.3
20260506042738 10 310 1.6 6.4 0.00 0.00 0.00 85 1009.3
20260506042237 10 262 0.0 4.8 0.00 0.00 0.00 85 1009.3
20260506041750 10 300 0.0 3.2 0.00 0.00 0.00 85 1009.3
20260506041235 10 291 0.0 3.2 0.00 0.00 0.00 85 1009.3
20260506041017 10 284 0.0 3.2 0.00 0.00 0.00 85 1009.3
20260506040230 10 298 0.0 3.2 0.00 0.00 0.00 84 1009.3
20260506035723 10 293 0.0 3.2 0.00 0.00 0.00 85 1009.3
20260506035220 10 316 0.0 3.2 0.00 0.00 0.00 84 1009.3
20260506034712 10 85 0.0 3.2 0.00 0.00 0.00 84 1009.4
20260506034207 10 86 0.0 4.8 0.00 0.00 0.00 84 1009.4
20260506033712 10 317 0.0 4.8 0.00 0.00 0.00 84 1009.4
20260506033213 10 297 0.0 3.2 0.00 0.00 0.00 84 1009.4
20260506032945 10 280 0.0 4.8 0.00 0.00 0.00 84 1009.5
20260506032210 10 320 0.0 4.8 0.00 0.00 0.00 84 1009.5
20260506031708 10 303 0.0 4.8 0.00 0.00 0.00 84 1009.6
20260506031204 10 299 0.0 4.8 0.00 0.00 0.00 84 1009.6
20260506030748 10 324 0.0 4.8 0.00 0.00 0.00 84 1009.7
20260506030730 10 296 0.0 4.8 0.00 0.00 0.00 84 1009.6
20260506025703 10 320 0.0 1.6 0.00 0.00 0.00 84 1009.8
20260506025202 10 291 0.0 3.2 0.00 0.00 0.00 84 1009.8
20260506024702 10 306 0.0 3.2 0.00 0.00 0.00 83 1009.8
20260506024457 10 306 0.0 3.2 0.00 0.00 0.00 83 1009.8
20260506023703 10 256 0.0 4.8 0.00 0.00 0.00 83 1009.9
20260506023158 10 260 0.0 4.8 0.00 0.00 0.00 83 1010.0
20260506022656 10 303 0.0 3.2 0.00 0.00 0.00 83 1009.9
20260506022155 10 296 0.0 1.6 0.00 0.00 0.00 83 1009.8
20260506021654 10 289 0.0 3.2 0.00 0.00 0.00 82 1009.8
20260506021152 10 303 0.0 3.2 0.00 0.00 0.00 82 1009.9
20260506020649 10 312 0.0 3.2 0.00 0.00 0.00 82 1009.9
20260506020149 10 24 0.0 3.2 0.00 0.00 0.00 82 1009.9
20260506015658 10 308 0.0 3.2 0.00 0.00 0.00 81 1009.9
20260506015146 10 303 0.0 3.2 0.00 0.00 0.00 81 1010.0
20260506014648 10 313 0.0 3.2 0.00 0.00 0.00 81 1010.0
20260506014515 10 334 0.0 3.2 0.00 0.00 0.00 81 1010.0
20260506013644 10 310 0.0 3.2 0.00 0.00 0.00 80 1010.0